Regional Weather Roundup
Issued by NWS Cleveland, OH

Home | Current Version | Previous Version | Text Only | Print | Product List | Glossary Off
Versions: 1 2 3 4 5 6 7 8 9 10 11 12 13 14 15 16 17 18 19 20 21 22 23 24 25 26 27 28 29 30 31 32 33 34 35 36 37 38 39 40 41 42 43 44 45 46 47 48 49 50

000
ASUS41 KCLE 061310
RWRCLE
OHIO REGIONAL WEATHER ROUNDUP
NATIONAL WEATHER SERVICE WILMINGTON, OH
900 AM EDT WED MAY 06 2015

NOTE: "FAIR" INDICATES FEW OR NO CLOUDS BELOW 12,000 FEET WITH NO
SIGNIFICANT WEATHER AND/OR OBSTRUCTIONS TO VISIBILITY.

OHZ001>008-015>018-024>027-034-035-043-044-061400-
   NORTHWEST OHIO

CITY           SKY/WX    TMP DP  RH WIND       PRES   REMARKS
DEFIANCE       FOG       54  53  97 E6        30.25R VSB 1/4
FINDLAY        CLOUDY    54  53  97 NE6       30.23R FOG
TOLEDO EXPRESS FOG       52  52 100 E6        30.25R VSB 1/4
TOLEDO EXEC    FOG       52  50  93 NE8       30.26R VSB 1/4
LIMA           FOG       55  55 100 E3        30.23R VSB 1/4
$$

OHZ009>014-019>023-028>033-038-089-061400-
   NORTHEAST OHIO

CITY           SKY/WX    TMP DP  RH WIND       PRES   REMARKS
CLE-HOPKINS    FOG       52  52 100 N7        30.27R VSB 1/8
CLE-LAKEFRONT  CLOUDY    52  49  89 N8        30.25R FOG
CUY CO. ARPT   FOG       59  59 100 NW6       30.25R VSB 1/4
LORAIN-ELYRIA  CLOUDY    53  53 100 NE6       30.25R FOG
ASHTABULA      CLOUDY    56  55  97 CALM      30.26R FOG
AKRON-CANTON   PTSUNNY   61  59  93 SE9       30.24R FOG
WOOSTER        FOG       59  59 100 SE5       30.24S VSB<1/4
MANSFIELD      PTSUNNY   59  59 100 SE5       30.23S FOG
YOUNGSTOWN     PTSUNNY   65  59  81 SE6       30.23S
$$

OHZ042-051>053-060>062-070>072-077>081-061400-
  SOUTHWEST OHIO

CITY           SKY/WX    TMP DP  RH WIND       PRES   REMARKS
CINC-COVINGTON MOSUNNY   69  59  70 CALM      30.22S
CINC-LUNKEN    SUNNY     62  59  90 CALM      30.23R
HAMILTON       SUNNY     66  58  75 CALM      30.23R
DAYTON         MOSUNNY   69  58  67 CALM      30.23S
WRIGHT-PAT AFB SUNNY     64  58  81 CALM      30.22S
DAYTON GENERAL SUNNY     69  57  65 CALM      30.22R
WILMINGTON     SUNNY     71  57  61 SW3       30.23R
$$

OHZ036-037-039>041-045>050-054>059-063>069-073>076-082>088-061400-
  CENTRAL AND SOUTHEAST OHIO

CITY           SKY/WX    TMP DP  RH WIND       PRES   REMARKS
COLUMBUS       SUNNY     66  56  70 CALM      30.22S
OSU AIRPORT    SUNNY     62  57  83 CALM      30.23R HAZE
BOLTON FIELD   SUNNY     64  59  82 CALM      30.23R FOG
RICKENBACK AFB SUNNY     63  56  78 CALM      30.22S
NEWARK         FOG       59  58  96 CALM      30.23R VSB<1/4
MARION         FOG       59  59 100 SW6       30.23S VSB 1/4
LANCASTER      SUNNY     68  57  68 CALM      30.23S
ZANESVILLE     FOG       58  57  97 N3        30.23S VSB 1/4
NEW PHILLY     CLOUDY    63  59  87 SE6       30.24S FOG
$$



USA.gov is the U.S. government's official web portal to all federal, state and local government web resources and services.